SIA606 WSSS-RKSI

Flight info

Callsign SIA606
Flight time N/A
Altitude 39000
Route TOMAN5B TOMAN L625 VERIN/N0488F400 L625 AKMON/K0904F400 L625 ANOKI/N0487F400 L625 ABVAR/N0486F410 M646 HCN W4 APU B591 DUBAN B576 OLMEN OLMEN2E
Aircraft A359/H-SDE2E3GHIJ3J4J5LM1ORWXY/LB1D1

Departure

Time N/A
Airport Singapore Changi Airport (WSSS)

Arrival

Time 2026-05-04 13:58
Airport Incheon International Airport (RKSI)
Time Latitude Longitude Altitude Speed Heading
2026-05-04 13:09 32.02363 126.04044 41218 ft 537 kts 10°
2026-05-04 13:10 32.09380 126.07027 41174 ft 536 kts 11°
2026-05-04 13:10 32.16397 126.10002 41167 ft 536 kts 10°
2026-05-04 13:11 32.23414 126.12972 41191 ft 536 kts 11°
2026-05-04 13:11 32.30423 126.15947 41167 ft 535 kts 11°
2026-05-04 13:12 32.37431 126.18930 41167 ft 535 kts 11°
2026-05-04 13:12 32.44436 126.21918 41170 ft 534 kts 11°
2026-05-04 13:13 32.51424 126.24904 41160 ft 534 kts 11°
2026-05-04 13:13 32.58417 126.27904 41172 ft 535 kts 11°
2026-05-04 13:14 32.65421 126.30909 41171 ft 535 kts 11°
2026-05-04 13:14 32.72371 126.33894 41168 ft 535 kts 11°
2026-05-04 13:15 32.79364 126.36904 41196 ft 535 kts 11°
2026-05-04 13:15 32.86397 126.39937 41167 ft 534 kts 11°
2026-05-04 13:16 32.93339 126.42938 41163 ft 534 kts 11°
2026-05-04 13:16 33.00319 126.45960 41165 ft 534 kts 11°
2026-05-04 13:17 33.07304 126.48979 41164 ft 534 kts 11°
2026-05-04 13:17 33.14293 126.51974 41160 ft 534 kts 11°
2026-05-04 13:18 33.21291 126.54980 41166 ft 534 kts 11°
2026-05-04 13:18 33.28281 126.57998 41157 ft 534 kts 11°
2026-05-04 13:19 33.35276 126.61017 41151 ft 533 kts 11°
2026-05-04 13:19 33.38816 126.62169 41156 ft 521 kts
2026-05-04 13:19 33.42374 126.62785 41145 ft 515 kts 357°
2026-05-04 13:20 33.49476 126.63650 41146 ft 512 kts 355°
2026-05-04 13:20 33.56580 126.64372 41176 ft 512 kts 355°
2026-05-04 13:21 33.63679 126.65093 41156 ft 512 kts 356°
2026-05-04 13:21 33.70634 126.65823 41147 ft 512 kts 356°
2026-05-04 13:22 33.77731 126.66580 41173 ft 512 kts 356°
2026-05-04 13:22 33.84825 126.67340 41151 ft 512 kts 356°
2026-05-04 13:23 33.91921 126.68100 41157 ft 512 kts 356°
2026-05-04 13:23 33.99010 126.68860 41168 ft 511 kts 356°
2026-05-04 13:24 34.06097 126.69621 41154 ft 511 kts 356°
2026-05-04 13:24 34.13186 126.70384 41148 ft 511 kts 356°
2026-05-04 13:25 34.23802 126.71529 41145 ft 510 kts 356°
2026-05-04 13:25 34.30871 126.72302 41141 ft 510 kts 356°
2026-05-04 13:26 34.37937 126.73064 41162 ft 510 kts 356°
2026-05-04 13:26 34.44999 126.73825 41136 ft 509 kts 356°
2026-05-04 13:27 34.51789 126.74560 41136 ft 509 kts 356°
2026-05-04 13:27 34.58635 126.75306 41154 ft 510 kts 356°
2026-05-04 13:28 34.63923 126.75881 41131 ft 510 kts 357°
2026-05-04 13:28 34.70994 126.76652 41125 ft 510 kts 357°
2026-05-04 13:29 34.78056 126.77424 41152 ft 510 kts 357°
2026-05-04 13:29 34.85115 126.78198 41131 ft 509 kts 357°
2026-05-04 13:30 34.92037 126.78958 41129 ft 509 kts 357°
2026-05-04 13:30 34.99142 126.79738 41132 ft 509 kts 357°
2026-05-04 13:31 35.06195 126.80514 41130 ft 509 kts 357°
2026-05-04 13:31 35.13245 126.81292 41095 ft 509 kts 357°
2026-05-04 13:32 35.16773 126.81685 40806 ft 509 kts 357°
2026-05-04 13:32 35.20202 126.82058 40359 ft 508 kts 357°
2026-05-04 13:32 35.23721 126.82438 39900 ft 508 kts 357°
2026-05-04 13:32 35.27198 126.82813 39457 ft 508 kts 357°
2026-05-04 13:33 35.30711 126.83191 39018 ft 508 kts 357°
2026-05-04 13:33 35.34201 126.83569 38516 ft 509 kts 357°
2026-05-04 13:33 35.37729 126.83951 37945 ft 509 kts 357°
2026-05-04 13:33 35.41256 126.84334 37354 ft 508 kts 358°
2026-05-04 13:34 35.44776 126.84720 36792 ft 508 kts 358°
2026-05-04 13:34 35.48206 126.85095 36258 ft 508 kts 358°
2026-05-04 13:34 35.51805 126.85490 35713 ft 507 kts 358°
2026-05-04 13:34 35.55229 126.85871 35197 ft 507 kts 359°
2026-05-04 13:35 35.58764 126.86263 34698 ft 506 kts 359°
2026-05-04 13:35 35.65765 126.87032 33602 ft 504 kts 360°
2026-05-04 13:35 35.69252 126.87414 33021 ft 503 kts
2026-05-04 13:36 35.72661 126.87789 32452 ft 501 kts
2026-05-04 13:36 35.76106 126.88171 31892 ft 494 kts
2026-05-04 13:36 35.79513 126.88550 31336 ft 487 kts
2026-05-04 13:36 35.82867 126.88924 30794 ft 481 kts
2026-05-04 13:37 35.86184 126.89293 30273 ft 476 kts
2026-05-04 13:37 35.89460 126.89657 29662 ft 470 kts
2026-05-04 13:37 35.92705 126.90024 29046 ft 465 kts
2026-05-04 13:37 35.94834 126.90263 28663 ft 462 kts
2026-05-04 13:38 35.99022 126.90727 27878 ft 455 kts
2026-05-04 13:38 36.01100 126.90956 27494 ft 451 kts
2026-05-04 13:38 36.04210 126.91299 26923 ft 447 kts
2026-05-04 13:38 36.07294 126.91639 26364 ft 442 kts
2026-05-04 13:39 36.10314 126.91974 25816 ft 437 kts
2026-05-04 13:39 36.13329 126.92309 25278 ft 433 kts
2026-05-04 13:39 36.17274 126.92748 24587 ft 427 kts
2026-05-04 13:39 36.20213 126.93075 24064 ft 422 kts
2026-05-04 13:40 36.22182 126.93294 23722 ft 419 kts
2026-05-04 13:40 36.25071 126.93616 23123 ft 415 kts
2026-05-04 13:40 36.27932 126.93936 22528 ft 411 kts
2026-05-04 13:40 36.30769 126.94253 21949 ft 409 kts
2026-05-04 13:41 36.33573 126.94566 21392 ft 406 kts
2026-05-04 13:41 36.36381 126.94880 20832 ft 403 kts
2026-05-04 13:41 36.39166 126.95193 20280 ft 401 kts
2026-05-04 13:42 36.44683 126.95819 19236 ft 396 kts
2026-05-04 13:42 36.47420 126.96126 18761 ft 394 kts
2026-05-04 13:42 36.50141 126.96432 18273 ft 392 kts
2026-05-04 13:42 36.52847 126.96738 17738 ft 389 kts
2026-05-04 13:43 36.55494 126.97038 17229 ft 384 kts
2026-05-04 13:43 36.58179 126.97341 16697 ft 381 kts
2026-05-04 13:43 36.60806 126.97638 16190 ft 378 kts
2026-05-04 13:43 36.63419 126.97933 15692 ft 376 kts
2026-05-04 13:44 36.65981 126.98223 15197 ft 374 kts
2026-05-04 13:44 36.68565 126.98516 14721 ft 372 kts
2026-05-04 13:44 36.71133 126.98795 14235 ft 370 kts
2026-05-04 13:44 36.73686 126.98699 13752 ft 366 kts 351°
2026-05-04 13:45 36.76123 126.97851 13236 ft 362 kts 339°
2026-05-04 13:45 36.78440 126.96664 12995 ft 359 kts 336°
2026-05-04 13:45 36.80734 126.95440 12946 ft 359 kts 336°
2026-05-04 13:45 36.83027 126.94214 12700 ft 357 kts 336°
2026-05-04 13:46 36.85303 126.92997 12318 ft 355 kts 336°
2026-05-04 13:46 36.87547 126.91795 11939 ft 346 kts 336°
2026-05-04 13:46 36.89732 126.90622 11548 ft 337 kts 336°
2026-05-04 13:46 36.91861 126.89479 11155 ft 329 kts 336°
2026-05-04 13:47 36.93939 126.88361 10752 ft 321 kts 336°
2026-05-04 13:47 36.95970 126.87267 10372 ft 314 kts 336°
2026-05-04 13:47 36.97938 126.86206 9989 ft 308 kts 336°
2026-05-04 13:47 36.99883 126.85157 9581 ft 302 kts 336°
2026-05-04 13:48 37.01791 126.84131 9157 ft 296 kts 336°
2026-05-04 13:48 37.03664 126.83129 8768 ft 290 kts 336°
2026-05-04 13:48 37.05456 126.82014 8366 ft 285 kts 327°
2026-05-04 13:48 37.07021 126.80538 8009 ft 278 kts 320°
2026-05-04 13:49 37.08452 126.78996 7658 ft 273 kts 318°
2026-05-04 13:49 37.09861 126.77429 7311 ft 269 kts 318°
2026-05-04 13:49 37.11244 126.75874 6969 ft 266 kts 317°
2026-05-04 13:49 37.12616 126.74323 6627 ft 265 kts 317°
2026-05-04 13:50 37.13978 126.72777 6264 ft 264 kts 317°
2026-05-04 13:50 37.15333 126.71236 5905 ft 263 kts 317°
2026-05-04 13:50 37.16658 126.69727 5551 ft 261 kts 317°
2026-05-04 13:50 37.18000 126.68196 5193 ft 260 kts 317°
2026-05-04 13:51 37.19320 126.66691 4995 ft 256 kts 317°
2026-05-04 13:51 37.20607 126.65219 4959 ft 241 kts 317°
2026-05-04 13:51 37.21809 126.63780 4982 ft 238 kts 317°
2026-05-04 13:51 37.23077 126.62471 4970 ft 238 kts 322°
2026-05-04 13:52 37.25776 126.60111 4686 ft 236 kts 324°
2026-05-04 13:52 37.27116 126.58916 4315 ft 236 kts 323°
2026-05-04 13:52 37.28459 126.57716 3881 ft 238 kts 323°
2026-05-04 13:53 37.29812 126.56517 3496 ft 237 kts 323°
2026-05-04 13:53 37.31154 126.55326 3158 ft 235 kts 323°
2026-05-04 13:53 37.32475 126.54151 2840 ft 231 kts 323°
2026-05-04 13:54 37.34949 126.51953 2251 ft 202 kts 322°
2026-05-04 13:54 37.36051 126.50973 2011 ft 186 kts 322°
2026-05-04 13:54 37.38008 126.49233 1531 ft 161 kts 321°
2026-05-04 13:55 37.38881 126.48456 1320 ft 151 kts 321°
2026-05-04 13:55 37.40510 126.47004 935 ft 135 kts 320°
2026-05-04 13:55 37.41263 126.46334 750 ft 132 kts 321°
2026-05-04 13:56 37.42012 126.45669 589 ft 132 kts 322°
2026-05-04 13:56 37.42760 126.45002 396 ft 131 kts 322°
2026-05-04 13:56 37.44247 126.43679 61 ft 131 kts 323°
2026-05-04 13:57 37.44963 126.43036 37 ft 113 kts 324°
2026-05-04 13:57 37.45463 126.42596 38 ft 63 kts 325°
2026-05-04 13:58 37.45984 126.42242 38 ft 14 kts
2026-05-04 13:58 37.46064 126.42376 39 ft 10 kts 57°
2026-05-04 13:58 37.46089 126.42421 40 ft 1 kts 55°
2026-05-04 13:59 37.46089 126.42422 40 ft 0 kts 55°
2026-05-04 13:59 37.46096 126.42434 40 ft 9 kts 55°
2026-05-04 14:00 37.46160 126.42550 40 ft 20 kts 55°
2026-05-04 14:00 37.46208 126.42772 39 ft 15 kts 132°
2026-05-04 14:00 37.46117 126.42854 39 ft 18 kts 144°
2026-05-04 14:01 37.46015 126.42946 39 ft 20 kts 144°
2026-05-04 14:01 37.45902 126.43046 39 ft 19 kts 146°
2026-05-04 14:01 37.45684 126.43240 39 ft 18 kts 144°
2026-05-04 14:02 37.45573 126.43340 39 ft 21 kts 144°
2026-05-04 14:02 37.45448 126.43452 39 ft 18 kts 145°
2026-05-04 14:02 37.45346 126.43541 39 ft 19 kts 145°
2026-05-04 14:02 37.45230 126.43644 39 ft 22 kts 145°
2026-05-04 14:03 37.45103 126.43757 39 ft 20 kts 144°
2026-05-04 14:03 37.45011 126.43838 39 ft 15 kts 144°
2026-05-04 14:03 37.44938 126.43903 39 ft 12 kts 144°
2026-05-04 14:03 37.44913 126.43985 39 ft 12 kts 70°
2026-05-04 14:04 37.44989 126.44170 39 ft 11 kts 104°
2026-05-04 14:04 37.44927 126.44243 39 ft 14 kts 143°
2026-05-04 14:04 37.44840 126.44323 39 ft 17 kts 144°
2026-05-04 14:05 37.44687 126.44460 39 ft 11 kts 146°
2026-05-04 14:05 37.44642 126.44499 39 ft 7 kts 140°
2026-05-04 14:05 37.44621 126.44565 39 ft 10 kts 98°
2026-05-04 14:06 37.44613 126.44651 39 ft 8 kts 96°
2026-05-04 14:06 37.44611 126.44668 39 ft 4 kts 96°
2026-05-04 14:06 37.44610 126.44684 39 ft 0 kts 96°